Precipitable_Water
1.35 1.37 1.42 1.41 1.47 1.49 1.51 1.54 1.61 1.62 1.65 1.62 1.62 1.57 1.58 1.60 1.59 1.53 1.49 1.44 1.41 1.35 1.34 1.31 1.30 1.29 1.27 1.26 1.27 1.29 1.32 1.35 1.35 1.35 1.37 1.39 1.40 1.39 1.39 1.41 1.41 1.40 1.39 1.39 1.40 1.42 1.43 1.43 1.44 1.44 1.44 1.46 1.48 1.51 1.52 1.53 1.54 1.55 1.54 1.54 1.53 1.51 1.49 1.48 1.47 1.45 1.42 1.40 1.38 1.37 1.38 1.38 1.40 1.41 1.40 1.40 1.38 1.37 1.38 1.41 1.44 1.46 1.49 1.56 1.64
1.38 1.44 1.48 1.50 1.53 1.53 1.55 1.58 1.63 1.64 1.63 1.59 1.62 1.61 1.58 1.58 1.57 1.53 1.46 1.41 1.37 1.36 1.35 1.31 1.32 1.31 1.30 1.28 1.29 1.31 1.33 1.32 1.34 1.36 1.38 1.40 1.39 1.38 1.37 1.38 1.39 1.38 1.36 1.36 1.37 1.38 1.38 1.40 1.42 1.45 1.48 1.50 1.52 1.54 1.55 1.55 1.56 1.55 1.55 1.56 1.56 1.53 1.49 1.46 1.44 1.44 1.43 1.41 1.38 1.37 1.37 1.39 1.41 1.43 1.45 1.45 1.46 1.45 1.45 1.45 1.47 1.53 1.58 1.63 1.72
1.51 1.55 1.60 1.61 1.59 1.59 1.60 1.64 1.62 1.62 1.64 1.62 1.65 1.62 1.62 1.60 1.58 1.51 1.44 1.38 1.37 1.39 1.37 1.31 1.31 1.31 1.31 1.28 1.28 1.31 1.32 1.36 1.38 1.39 1.39 1.39 1.36 1.33 1.32 1.35 1.40 1.43 1.41 1.39 1.39 1.39 1.39 1.40 1.42 1.45 1.48 1.51 1.52 1.53 1.54 1.54 1.55 1.56 1.57 1.56 1.56 1.54 1.51 1.47 1.46 1.45 1.44 1.42 1.39 1.38 1.37 1.37 1.37 1.41 1.43 1.46 1.48 1.50 1.52 1.52 1.51 1.56 1.52 1.52 1.60
1.60 1.63 1.64 1.62 1.60 1.62 1.65 1.63 1.61 1.66 1.68 1.65 1.63 1.65 1.64 1.63 1.62 1.56 1.48 1.44 1.40 1.39 1.40 1.35 1.32 1.32 1.31 1.28 1.30 1.29 1.32 1.37 1.37 1.37 1.37 1.35 1.33 1.32 1.35 1.38 1.40 1.44 1.47 1.46 1.44 1.42 1.42 1.44 1.47 1.50 1.53 1.55 1.55 1.55 1.56 1.57 1.59 1.59 1.59 1.56 1.54 1.52 1.50 1.48 1.47 1.47 1.45 1.43 1.41 1.40 1.40 1.39 1.39 1.39 1.41 1.42 1.44 1.45 1.48 1.50 1.51 1.52 1.50 1.50 1.54
1.65 1.67 1.67 1.63 1.62 1.63 1.65 1.65 1.66 1.69 1.69 1.65 1.64 1.64 1.61 1.57 1.55 1.56 1.47 1.43 1.38 1.35 1.38 1.38 1.32 1.31 1.31 1.30 1.31 1.30 1.33 1.35 1.35 1.36 1.35 1.33 1.31 1.32 1.36 1.41 1.44 1.43 1.44 1.46 1.46 1.45 1.45 1.48 1.52 1.54 1.57 1.59 1.60 1.59 1.58 1.59 1.60 1.60 1.60 1.58 1.55 1.51 1.49 1.47 1.46 1.46 1.46 1.44 1.42 1.41 1.41 1.40 1.40 1.39 1.39 1.40 1.42 1.43 1.45 1.46 1.49 1.51 1.55 1.65 1.75
1.69 1.69 1.70 1.63 1.61 1.63 1.64 1.66 1.68 1.70 1.69 1.65 1.60 1.59 1.55 1.54 1.52 1.48 1.41 1.37 1.31 1.31 1.32 1.28 1.31 1.32 1.31 1.32 1.32 1.32 1.34 1.33 1.34 1.36 1.38 1.36 1.36 1.36 1.38 1.41 1.42 1.41 1.42 1.43 1.46 1.48 1.50 1.51 1.53 1.56 1.59 1.61 1.62 1.62 1.62 1.61 1.60 1.60 1.59 1.57 1.54 1.51 1.48 1.46 1.44 1.44 1.44 1.43 1.41 1.39 1.39 1.38 1.37 1.36 1.35 1.36 1.37 1.39 1.40 1.42 1.43 1.49 1.64 1.69 1.75
1.72 1.71 1.69 1.66 1.62 1.62 1.66 1.68 1.70 1.71 1.64 1.63 1.59 1.57 1.56 1.53 1.51 1.42 1.40 1.36 1.32 1.30 1.29 1.27 1.30 1.30 1.31 1.32 1.30 1.33 1.35 1.34 1.36 1.36 1.37 1.37 1.38 1.38 1.41 1.41 1.41 1.41 1.43 1.46 1.49 1.50 1.51 1.52 1.55 1.58 1.62 1.64 1.64 1.65 1.64 1.63 1.62 1.59 1.58 1.55 1.51 1.47 1.45 1.42 1.41 1.40 1.39 1.38 1.36 1.34 1.33 1.32 1.31 1.30 1.30 1.33 1.36 1.38 1.41 1.43 1.44 1.50 1.59 1.62 1.78
1.72 1.73 1.67 1.66 1.64 1.65 1.69 1.70 1.71 1.68 1.65 1.62 1.60 1.55 1.57 1.55 1.54 1.48 1.36 1.32 1.33 1.27 1.29 1.27 1.29 1.29 1.30 1.31 1.33 1.34 1.33 1.34 1.35 1.36 1.38 1.39 1.36 1.37 1.38 1.39 1.40 1.42 1.46 1.48 1.49 1.51 1.54 1.56 1.57 1.59 1.62 1.64 1.65 1.65 1.64 1.64 1.64 1.62 1.61 1.58 1.53 1.48 1.41 1.36 1.34 1.34 1.37 1.37 1.37 1.36 1.35 1.33 1.32 1.30 1.29 1.30 1.32 1.35 1.39 1.42 1.44 1.48 1.51 1.54 1.61
1.70 1.70 1.66 1.65 1.67 1.68 1.69 1.73 1.72 1.68 1.66 1.62 1.59 1.62 1.59 1.53 1.52 1.51 1.46 1.35 1.33 1.27 1.26 1.25 1.26 1.29 1.31 1.31 1.34 1.35 1.33 1.33 1.34 1.36 1.38 1.36 1.36 1.36 1.37 1.38 1.42 1.45 1.48 1.50 1.51 1.52 1.52 1.55 1.59 1.60 1.60 1.62 1.64 1.63 1.63 1.64 1.63 1.63 1.63 1.61 1.55 1.50 1.45 1.40 1.38 1.39 1.37 1.35 1.34 1.34 1.34 1.33 1.32 1.31 1.29 1.27 1.28 1.31 1.35 1.40 1.44 1.45 1.48 1.55 1.57
1.67 1.68 1.67 1.68 1.69 1.68 1.71 1.73 1.73 1.70 1.64 1.60 1.61 1.65 1.63 1.58 1.49 1.50 1.47 1.39 1.32 1.27 1.23 1.24 1.26 1.29 1.30 1.31 1.34 1.37 1.36 1.36 1.37 1.38 1.36 1.33 1.36 1.36 1.38 1.41 1.42 1.43 1.45 1.47 1.50 1.54 1.55 1.56 1.59 1.61 1.61 1.62 1.63 1.63 1.63 1.63 1.63 1.64 1.65 1.65 1.59 1.51 1.49 1.47 1.48 1.49 1.45 1.39 1.36 1.34 1.33 1.32 1.33 1.34 1.34 1.31 1.29 1.28 1.30 1.35 1.40 1.43 1.46 1.55 1.56
1.69 1.69 1.67 1.69 1.69 1.70 1.71 1.74 1.75 1.66 1.61 1.61 1.62 1.62 1.60 1.59 1.53 1.49 1.50 1.45 1.37 1.34 1.28 1.26 1.25 1.26 1.24 1.28 1.32 1.31 1.34 1.37 1.37 1.35 1.35 1.34 1.35 1.38 1.42 1.41 1.42 1.44 1.44 1.47 1.51 1.53 1.55 1.58 1.60 1.60 1.60 1.61 1.62 1.64 1.65 1.63 1.61 1.62 1.65 1.65 1.62 1.53 1.52 1.52 1.53 1.53 1.53 1.50 1.47 1.44 1.41 1.37 1.34 1.34 1.35 1.34 1.33 1.31 1.28 1.31 1.36 1.39 1.43 1.51 1.53
1.72 1.72 1.70 1.70 1.69 1.70 1.71 1.76 1.74 1.66 1.61 1.58 1.59 1.60 1.55 1.53 1.53 1.49 1.42 1.42 1.46 1.39 1.34 1.28 1.27 1.24 1.22 1.25 1.32 1.34 1.34 1.36 1.36 1.36 1.38 1.38 1.38 1.40 1.38 1.42 1.44 1.45 1.46 1.47 1.49 1.50 1.51 1.53 1.56 1.58 1.61 1.62 1.63 1.64 1.67 1.68 1.65 1.59 1.60 1.62 1.60 1.53 1.50 1.53 1.55 1.55 1.54 1.53 1.53 1.53 1.50 1.45 1.38 1.34 1.33 1.33 1.37 1.36 1.32 1.31 1.35 1.38 1.41 1.47 1.49
1.76 1.73 1.69 1.71 1.72 1.73 1.73 1.74 1.75 1.69 1.63 1.61 1.65 1.66 1.64 1.59 1.56 1.52 1.43 1.36 1.36 1.40 1.34 1.31 1.20 1.14 1.19 1.19 1.25 1.34 1.35 1.36 1.34 1.36 1.36 1.37 1.39 1.37 1.38 1.39 1.42 1.43 1.46 1.49 1.48 1.48 1.49 1.50 1.52 1.56 1.59 1.62 1.64 1.66 1.67 1.68 1.67 1.60 1.55 1.58 1.57 1.52 1.47 1.51 1.52 1.53 1.54 1.53 1.54 1.55 1.56 1.51 1.44 1.36 1.34 1.32 1.38 1.40 1.36 1.34 1.37 1.39 1.40 1.43 1.45
1.77 1.76 1.73 1.72 1.70 1.71 1.73 1.72 1.73 1.70 1.69 1.68 1.68 1.68 1.62 1.57 1.53 1.45 1.52 1.47 1.35 1.37 1.31 1.27 1.11 1.10 1.05 1.08 1.18 1.27 1.33 1.32 1.29 1.32 1.36 1.37 1.39 1.37 1.36 1.36 1.38 1.43 1.47 1.47 1.46 1.47 1.48 1.50 1.52 1.53 1.57 1.60 1.63 1.65 1.66 1.66 1.66 1.62 1.57 1.58 1.58 1.54 1.48 1.48 1.49 1.51 1.52 1.52 1.51 1.52 1.52 1.51 1.48 1.40 1.35 1.34 1.36 1.41 1.41 1.39 1.41 1.38 1.35 1.39 1.44
1.77 1.78 1.75 1.73 1.71 1.71 1.73 1.75 1.75 1.75 1.67 1.60 1.62 1.60 1.58 1.54 1.51 1.44 1.41 1.51 1.45 1.44 1.37 1.35 1.15 1.24 1.23 1.10 1.04 1.02 1.15 1.21 1.29 1.32 1.34 1.38 1.39 1.36 1.37 1.36 1.37 1.41 1.44 1.44 1.44 1.46 1.48 1.51 1.52 1.53 1.55 1.57 1.60 1.62 1.64 1.65 1.65 1.64 1.61 1.60 1.59 1.56 1.50 1.49 1.49 1.51 1.52 1.51 1.49 1.48 1.47 1.46 1.48 1.44 1.38 1.35 1.36 1.38 1.41 1.44 1.43 1.38 1.31 1.36 1.37
1.74 1.74 1.74 1.74 1.72 1.70 1.74 1.76 1.75 1.75 1.66 1.58 1.58 1.56 1.55 1.55 1.55 1.52 1.46 1.33 1.37 1.33 1.44 1.38 1.30 1.20 1.01 1.06 1.07 1.07 0.91 1.02 1.14 1.27 1.35 1.37 1.35 1.34 1.38 1.37 1.39 1.41 1.42 1.39 1.42 1.47 1.48 1.51 1.50 1.52 1.55 1.58 1.60 1.61 1.61 1.61 1.62 1.62 1.62 1.62 1.60 1.57 1.52 1.51 1.52 1.52 1.51 1.48 1.44 1.43 1.41 1.42 1.45 1.46 1.43 1.36 1.36 1.35 1.39 1.46 1.45 1.34 1.34 1.36 1.32
1.72 1.72 1.70 1.68 1.71 1.72 1.73 1.75 1.74 1.71 1.69 1.63 1.61 1.59 1.58 1.62 1.64 1.56 1.49 1.39 1.32 1.33 1.35 1.39 1.34 1.37 1.22 1.09 1.02 0.97 0.98 1.08 1.14 1.17 1.30 1.31 1.33 1.36 1.40 1.41 1.42 1.40 1.39 1.41 1.46 1.47 1.47 1.49 1.51 1.53 1.53 1.55 1.58 1.59 1.59 1.59 1.60 1.62 1.63 1.63 1.60 1.57 1.54 1.54 1.52 1.51 1.49 1.45 1.39 1.36 1.37 1.40 1.43 1.44 1.45 1.39 1.36 1.33 1.36 1.46 1.47 1.36 1.31 1.32 1.28
1.70 1.72 1.72 1.71 1.68 1.72 1.73 1.72 1.68 1.68 1.69 1.69 1.68 1.65 1.62 1.61 1.65 1.61 1.53 1.51 1.40 1.33 1.27 1.39 1.41 1.44 1.46 1.40 1.30 1.09 1.07 1.17 1.10 0.99 1.24 1.36 1.34 1.36 1.37 1.41 1.45 1.42 1.44 1.46 1.47 1.45 1.47 1.47 1.51 1.52 1.54 1.54 1.56 1.57 1.58 1.60 1.64 1.64 1.64 1.64 1.63 1.58 1.56 1.56 1.53 1.50 1.49 1.44 1.37 1.33 1.32 1.36 1.40 1.44 1.44 1.41 1.36 1.34 1.35 1.45 1.49 1.40 1.32 1.30 1.26
1.66 1.69 1.69 1.72 1.71 1.70 1.69 1.67 1.66 1.66 1.71 1.71 1.65 1.61 1.62 1.62 1.69 1.62 1.58 1.57 1.47 1.31 1.31 1.35 1.43 1.46 1.49 1.48 1.47 1.46 1.39 1.25 1.11 1.15 1.01 1.20 1.31 1.32 1.35 1.42 1.45 1.46 1.44 1.46 1.50 1.49 1.49 1.51 1.52 1.54 1.55 1.57 1.57 1.57 1.58 1.61 1.65 1.66 1.67 1.66 1.64 1.61 1.59 1.57 1.52 1.49 1.47 1.43 1.38 1.32 1.31 1.35 1.39 1.42 1.42 1.41 1.36 1.35 1.37 1.44 1.51 1.44 1.31 1.27 1.25
1.63 1.66 1.67 1.70 1.70 1.66 1.68 1.66 1.62 1.63 1.68 1.67 1.67 1.66 1.63 1.68 1.69 1.67 1.66 1.59 1.52 1.40 1.38 1.45 1.36 1.38 1.50 1.44 1.44 1.46 1.45 1.43 1.39 1.26 1.18 1.06 1.15 1.34 1.40 1.43 1.45 1.46 1.49 1.50 1.50 1.51 1.51 1.53 1.52 1.53 1.55 1.58 1.58 1.58 1.60 1.63 1.65 1.66 1.67 1.67 1.64 1.63 1.60 1.56 1.51 1.48 1.46 1.42 1.38 1.33 1.33 1.36 1.37 1.38 1.39 1.40 1.36 1.36 1.40 1.46 1.53 1.48 1.34 1.26 1.24
1.63 1.65 1.66 1.69 1.74 1.70 1.69 1.66 1.61 1.60 1.65 1.66 1.68 1.68 1.63 1.62 1.61 1.61 1.60 1.61 1.60 1.58 1.49 1.46 1.47 1.41 1.44 1.42 1.44 1.42 1.42 1.42 1.42 1.41 1.25 1.13 1.12 1.15 1.20 1.38 1.41 1.45 1.49 1.53 1.54 1.55 1.54 1.53 1.55 1.56 1.55 1.56 1.58 1.60 1.63 1.65 1.65 1.68 1.70 1.69 1.65 1.62 1.59 1.54 1.50 1.47 1.45 1.41 1.36 1.34 1.36 1.40 1.39 1.39 1.41 1.42 1.40 1.39 1.41 1.47 1.55 1.51 1.37 1.26 1.23
1.60 1.63 1.67 1.74 1.75 1.73 1.70 1.67 1.65 1.63 1.64 1.62 1.63 1.62 1.62 1.63 1.65 1.64 1.65 1.61 1.65 1.61 1.54 1.55 1.53 1.53 1.50 1.47 1.37 1.37 1.36 1.34 1.35 1.34 1.32 1.27 1.09 1.11 1.20 1.20 1.16 1.32 1.45 1.48 1.51 1.54 1.57 1.58 1.57 1.56 1.57 1.59 1.63 1.64 1.65 1.66 1.67 1.69 1.71 1.70 1.66 1.61 1.57 1.52 1.47 1.43 1.42 1.39 1.37 1.37 1.37 1.39 1.35 1.36 1.40 1.43 1.44 1.42 1.43 1.49 1.56 1.53 1.39 1.27 1.23
1.57 1.62 1.69 1.73 1.73 1.75 1.70 1.67 1.68 1.67 1.66 1.64 1.62 1.61 1.61 1.62 1.65 1.66 1.62 1.59 1.60 1.61 1.59 1.58 1.56 1.53 1.52 1.48 1.42 1.39 1.33 1.27 1.28 1.30 1.26 1.19 1.18 1.18 1.22 1.28 1.25 1.21 1.37 1.48 1.50 1.52 1.54 1.57 1.55 1.57 1.60 1.63 1.67 1.68 1.67 1.68 1.68 1.68 1.69 1.69 1.65 1.59 1.53 1.48 1.44 1.42 1.41 1.39 1.37 1.36 1.35 1.33 1.34 1.36 1.41 1.45 1.45 1.46 1.46 1.50 1.57 1.53 1.42 1.30 1.23
1.58 1.59 1.64 1.69 1.67 1.67 1.69 1.68 1.66 1.67 1.66 1.68 1.69 1.71 1.71 1.68 1.67 1.63 1.58 1.58 1.58 1.58 1.59 1.56 1.56 1.54 1.52 1.52 1.49 1.47 1.43 1.37 1.38 1.36 1.28 1.26 1.24 1.20 1.20 1.29 1.31 1.36 1.45 1.50 1.56 1.51 1.51 1.54 1.58 1.60 1.64 1.66 1.68 1.69 1.69 1.68 1.67 1.67 1.67 1.66 1.61 1.56 1.50 1.46 1.42 1.40 1.40 1.37 1.34 1.33 1.32 1.32 1.37 1.42 1.47 1.49 1.51 1.52 1.50 1.51 1.58 1.55 1.49 1.36 1.23
1.55 1.58 1.62 1.66 1.68 1.62 1.60 1.59 1.59 1.65 1.70 1.70 1.70 1.75 1.74 1.71 1.67 1.62 1.57 1.51 1.52 1.53 1.52 1.54 1.58 1.53 1.52 1.57 1.54 1.50 1.45 1.49 1.49 1.44 1.42 1.34 1.27 1.19 1.32 1.42 1.29 1.34 1.46 1.50 1.49 1.58 1.60 1.60 1.62 1.65 1.65 1.65 1.66 1.67 1.67 1.65 1.64 1.65 1.65 1.62 1.58 1.52 1.48 1.45 1.42 1.40 1.37 1.34 1.33 1.31 1.31 1.33 1.40 1.46 1.50 1.52 1.54 1.54 1.52 1.52 1.58 1.55 1.55 1.46 1.27
1.53 1.58 1.67 1.70 1.71 1.71 1.69 1.64 1.64 1.64 1.65 1.67 1.70 1.73 1.73 1.67 1.64 1.58 1.53 1.54 1.54 1.51 1.50 1.53 1.57 1.58 1.58 1.51 1.52 1.52 1.53 1.55 1.53 1.52 1.45 1.40 1.35 1.34 1.35 1.42 1.44 1.37 1.47 1.47 1.58 1.44 1.53 1.62 1.65 1.65 1.64 1.65 1.66 1.66 1.65 1.62 1.61 1.61 1.61 1.58 1.54 1.50 1.47 1.44 1.42 1.40 1.37 1.35 1.34 1.33 1.34 1.35 1.41 1.47 1.50 1.52 1.53 1.53 1.52 1.52 1.57 1.55 1.58 1.55 1.37
1.60 1.65 1.73 1.75 1.75 1.76 1.75 1.71 1.70 1.66 1.65 1.65 1.70 1.73 1.74 1.70 1.66 1.62 1.59 1.59 1.57 1.55 1.52 1.51 1.48 1.49 1.51 1.51 1.53 1.54 1.54 1.57 1.54 1.52 1.55 1.50 1.44 1.42 1.40 1.29 1.31 1.36 1.33 1.39 1.42 1.41 1.40 1.54 1.62 1.60 1.62 1.64 1.65 1.65 1.63 1.61 1.60 1.60 1.58 1.55 1.52 1.50 1.47 1.44 1.41 1.37 1.37 1.39 1.38 1.37 1.37 1.37 1.41 1.47 1.49 1.50 1.49 1.48 1.49 1.52 1.58 1.55 1.59 1.61 1.48
1.73 1.75 1.76 1.77 1.76 1.75 1.75 1.73 1.73 1.71 1.70 1.70 1.71 1.71 1.71 1.65 1.64 1.65 1.61 1.71 1.64 1.59 1.57 1.56 1.52 1.52 1.51 1.54 1.51 1.51 1.56 1.56 1.57 1.57 1.58 1.57 1.54 1.53 1.51 1.42 1.26 1.16 1.26 1.20 1.28 1.34 1.53 1.47 1.58 1.65 1.64 1.63 1.67 1.65 1.64 1.60 1.59 1.59 1.55 1.52 1.50 1.49 1.46 1.43 1.40 1.37 1.37 1.40 1.41 1.41 1.42 1.42 1.42 1.45 1.48 1.48 1.49 1.50 1.52 1.53 1.60 1.58 1.60 1.63 1.54
1.73 1.77 1.78 1.81 1.81 1.79 1.75 1.72 1.70 1.70 1.70 1.71 1.70 1.70 1.69 1.63 1.58 1.58 1.58 1.67 1.67 1.60 1.60 1.58 1.62 1.61 1.55 1.52 1.50 1.50 1.54 1.58 1.59 1.59 1.58 1.59 1.58 1.56 1.55 1.45 1.43 1.26 1.16 1.12 1.23 1.26 1.42 1.55 1.42 1.55 1.65 1.66 1.64 1.66 1.59 1.57 1.58 1.55 1.51 1.49 1.48 1.47 1.43 1.41 1.37 1.33 1.32 1.36 1.40 1.43 1.46 1.46 1.44 1.46 1.49 1.51 1.55 1.56 1.55 1.55 1.59 1.60 1.61 1.64 1.56
1.73 1.75 1.78 1.80 1.82 1.83 1.78 1.74 1.71 1.69 1.67 1.67 1.66 1.66 1.65 1.59 1.55 1.53 1.54 1.57 1.55 1.58 1.57 1.57 1.59 1.60 1.57 1.54 1.52 1.49 1.55 1.55 1.55 1.60 1.60 1.60 1.59 1.57 1.54 1.55 1.52 1.35 1.31 1.17 1.21 1.39 1.38 1.55 1.58 1.48 1.61 1.62 1.62 1.57 1.54 1.52 1.54 1.51 1.48 1.45 1.44 1.44 1.40 1.37 1.33 1.31 1.32 1.37 1.42 1.46 1.49 1.49 1.48 1.49 1.52 1.55 1.57 1.56 1.55 1.57 1.60 1.62 1.63 1.64 1.58
1.76 1.76 1.75 1.77 1.80 1.80 1.77 1.74 1.74 1.72 1.72 1.68 1.67 1.64 1.62 1.54 1.54 1.53 1.57 1.56 1.50 1.46 1.50 1.50 1.53 1.54 1.52 1.50 1.54 1.52 1.55 1.54 1.56 1.60 1.65 1.65 1.62 1.62 1.58 1.58 1.54 1.49 1.40 1.34 1.18 1.41 1.54 1.41 1.53 1.63 1.57 1.59 1.55 1.48 1.45 1.47 1.48 1.47 1.43 1.40 1.39 1.38 1.35 1.32 1.29 1.30 1.36 1.43 1.48 1.51 1.52 1.53 1.53 1.53 1.54 1.56 1.57 1.56 1.58 1.60 1.63 1.63 1.66 1.65 1.58
1.78 1.80 1.78 1.78 1.80 1.78 1.76 1.74 1.72 1.72 1.71 1.71 1.69 1.66 1.66 1.62 1.59 1.55 1.59 1.60 1.54 1.49 1.50 1.56 1.55 1.54 1.50 1.46 1.48 1.50 1.55 1.55 1.55 1.57 1.58 1.60 1.59 1.54 1.52 1.50 1.51 1.53 1.52 1.43 1.31 1.29 1.56 1.52 1.53 1.57 1.61 1.54 1.49 1.36 1.33 1.33 1.38 1.38 1.36 1.34 1.34 1.31 1.26 1.25 1.28 1.35 1.43 1.50 1.54 1.56 1.58 1.58 1.57 1.56 1.56 1.59 1.59 1.59 1.59 1.62 1.65 1.65 1.67 1.65 1.60
1.77 1.75 1.75 1.77 1.80 1.80 1.79 1.77 1.74 1.72 1.70 1.68 1.69 1.69 1.69 1.65 1.65 1.64 1.62 1.61 1.56 1.55 1.57 1.57 1.62 1.60 1.57 1.52 1.49 1.51 1.56 1.50 1.52 1.56 1.57 1.56 1.54 1.51 1.49 1.45 1.39 1.46 1.46 1.45 1.38 1.36 1.50 1.66 1.61 1.56 1.59 1.53 1.37 1.37 1.26 1.20 1.19 1.23 1.29 1.31 1.31 1.24 1.21 1.26 1.34 1.42 1.50 1.56 1.59 1.61 1.62 1.61 1.62 1.60 1.58 1.60 1.61 1.62 1.62 1.63 1.66 1.66 1.65 1.65 1.62
1.77 1.75 1.75 1.77 1.79 1.79 1.77 1.76 1.76 1.76 1.73 1.68 1.68 1.67 1.63 1.61 1.60 1.63 1.61 1.60 1.57 1.54 1.56 1.55 1.60 1.62 1.60 1.52 1.48 1.49 1.53 1.51 1.56 1.58 1.58 1.55 1.51 1.46 1.44 1.41 1.38 1.43 1.59 1.52 1.49 1.40 1.32 1.54 1.55 1.61 1.50 1.48 1.24 1.33 1.19 1.11 1.11 1.17 1.19 1.24 1.32 1.27 1.26 1.35 1.40 1.48 1.57 1.62 1.65 1.66 1.65 1.63 1.63 1.64 1.61 1.61 1.63 1.65 1.66 1.64 1.65 1.66 1.65 1.64 1.62
1.74 1.74 1.74 1.74 1.75 1.77 1.75 1.74 1.74 1.73 1.71 1.70 1.72 1.69 1.67 1.66 1.64 1.64 1.65 1.61 1.56 1.51 1.48 1.47 1.49 1.54 1.53 1.53 1.52 1.53 1.54 1.49 1.51 1.53 1.54 1.50 1.50 1.46 1.45 1.53 1.56 1.62 1.66 1.65 1.51 1.39 1.39 1.44 1.52 1.42 1.36 1.32 1.19 1.14 1.18 1.18 1.19 1.21 1.20 1.27 1.31 1.27 1.34 1.41 1.46 1.54 1.61 1.67 1.68 1.67 1.66 1.65 1.66 1.67 1.65 1.62 1.63 1.67 1.69 1.68 1.66 1.66 1.66 1.65 1.63
1.69 1.74 1.75 1.74 1.74 1.72 1.70 1.69 1.69 1.69 1.72 1.72 1.72 1.74 1.74 1.74 1.71 1.68 1.68 1.67 1.64 1.60 1.56 1.55 1.57 1.58 1.56 1.54 1.56 1.57 1.56 1.51 1.52 1.53 1.54 1.53 1.50 1.51 1.53 1.60 1.62 1.63 1.67 1.65 1.62 1.53 1.52 1.39 1.45 1.36 1.35 1.20 1.17 1.19 1.21 1.24 1.23 1.25 1.30 1.36 1.41 1.27 1.35 1.45 1.51 1.57 1.66 1.71 1.72 1.70 1.69 1.68 1.69 1.70 1.70 1.67 1.65 1.68 1.71 1.70 1.70 1.68 1.66 1.66 1.65
1.71 1.74 1.75 1.76 1.72 1.69 1.64 1.63 1.62 1.63 1.67 1.70 1.70 1.71 1.74 1.76 1.74 1.72 1.71 1.70 1.69 1.66 1.63 1.61 1.61 1.62 1.60 1.55 1.55 1.55 1.52 1.44 1.49 1.53 1.59 1.56 1.57 1.57 1.59 1.66 1.63 1.63 1.62 1.63 1.62 1.61 1.48 1.35 1.33 1.38 1.35 1.25 1.20 1.19 1.24 1.18 1.23 1.29 1.35 1.35 1.33 1.24 1.37 1.49 1.57 1.66 1.71 1.78 1.78 1.75 1.73 1.72 1.72 1.73 1.73 1.71 1.69 1.71 1.74 1.74 1.72 1.72 1.71 1.70 1.69
1.68 1.70 1.69 1.72 1.72 1.68 1.66 1.64 1.64 1.64 1.65 1.66 1.65 1.65 1.67 1.69 1.70 1.71 1.71 1.70 1.69 1.68 1.66 1.65 1.64 1.64 1.60 1.57 1.57 1.56 1.51 1.43 1.42 1.46 1.51 1.55 1.61 1.61 1.61 1.64 1.67 1.64 1.59 1.60 1.59 1.52 1.45 1.38 1.34 1.28 1.28 1.15 1.11 1.15 1.25 1.28 1.20 1.17 1.23 1.33 1.30 1.27 1.37 1.43 1.53 1.62 1.74 1.79 1.78 1.76 1.75 1.75 1.73 1.73 1.74 1.72 1.71 1.72 1.73 1.75 1.75 1.74 1.74 1.74 1.74
1.59 1.60 1.65 1.67 1.72 1.70 1.69 1.67 1.65 1.65 1.64 1.64 1.63 1.62 1.62 1.63 1.64 1.63 1.63 1.64 1.64 1.64 1.65 1.66 1.69 1.69 1.68 1.67 1.66 1.66 1.62 1.60 1.56 1.53 1.53 1.55 1.57 1.57 1.59 1.62 1.68 1.65 1.62 1.61 1.59 1.54 1.47 1.38 1.33 1.26 1.15 1.18 1.13 1.06 1.24 1.32 1.29 1.26 1.18 1.18 1.15 1.22 1.40 1.42 1.41 1.52 1.63 1.71 1.79 1.76 1.75 1.76 1.73 1.71 1.73 1.71 1.69 1.70 1.71 1.73 1.75 1.77 1.77 1.76 1.76
1.53 1.54 1.58 1.60 1.65 1.67 1.66 1.65 1.67 1.68 1.65 1.63 1.63 1.64 1.64 1.64 1.62 1.61 1.60 1.58 1.56 1.56 1.57 1.58 1.61 1.64 1.67 1.69 1.71 1.76 1.77 1.78 1.77 1.76 1.75 1.68 1.69 1.65 1.67 1.64 1.64 1.64 1.62 1.61 1.57 1.51 1.42 1.33 1.21 1.12 1.12 1.07 1.13 1.21 1.26 1.25 1.16 1.19 1.26 1.23 1.12 1.15 1.32 1.46 1.48 1.45 1.51 1.52 1.45 1.58 1.70 1.78 1.76 1.72 1.71 1.69 1.67 1.66 1.68 1.71 1.73 1.76 1.78 1.79 1.81
1.58 1.58 1.59 1.57 1.55 1.55 1.57 1.59 1.60 1.64 1.62 1.61 1.63 1.64 1.64 1.65 1.65 1.62 1.61 1.60 1.57 1.54 1.54 1.55 1.56 1.56 1.57 1.61 1.67 1.74 1.78 1.81 1.84 1.83 1.81 1.79 1.75 1.71 1.75 1.79 1.76 1.71 1.66 1.63 1.60 1.54 1.46 1.36 1.28 1.25 1.17 1.12 1.14 1.14 1.15 1.14 1.11 1.11 1.21 1.23 1.17 1.24 1.36 1.44 1.52 1.59 1.58 1.50 1.40 1.32 1.44 1.68 1.71 1.68 1.67 1.64 1.66 1.64 1.63 1.64 1.68 1.73 1.76 1.80 1.85
1.64 1.64 1.61 1.58 1.53 1.50 1.49 1.51 1.54 1.57 1.58 1.61 1.62 1.64 1.67 1.66 1.66 1.65 1.64 1.63 1.62 1.60 1.58 1.57 1.59 1.62 1.61 1.60 1.62 1.67 1.73 1.76 1.78 1.79 1.81 1.86 1.89 1.84 1.81 1.83 1.82 1.79 1.74 1.68 1.64 1.61 1.54 1.45 1.39 1.36 1.27 1.23 1.26 1.30 1.29 1.33 1.35 1.35 1.23 1.18 1.07 1.16 1.27 1.33 1.46 1.52 1.64 1.59 1.39 1.18 1.22 1.51 1.64 1.62 1.61 1.57 1.64 1.61 1.55 1.53 1.53 1.60 1.69 1.78 1.85
1.67 1.67 1.64 1.61 1.59 1.60 1.58 1.56 1.54 1.55 1.57 1.60 1.62 1.65 1.67 1.70 1.72 1.70 1.67 1.66 1.68 1.67 1.66 1.65 1.64 1.70 1.75 1.78 1.76 1.75 1.74 1.73 1.73 1.76 1.80 1.85 1.87 1.85 1.84 1.84 1.84 1.78 1.68 1.62 1.60 1.63 1.60 1.54 1.56 1.52 1.44 1.36 1.37 1.43 1.43 1.44 1.42 1.34 1.24 1.19 1.11 1.09 1.09 1.08 1.10 1.33 1.60 1.58 1.42 1.18 1.12 1.30 1.52 1.50 1.52 1.53 1.56 1.50 1.43 1.37 1.39 1.49 1.58 1.66 1.74
1.69 1.70 1.66 1.62 1.62 1.63 1.62 1.61 1.58 1.56 1.56 1.58 1.61 1.65 1.68 1.71 1.74 1.75 1.74 1.72 1.75 1.78 1.79 1.79 1.81 1.83 1.83 1.85 1.87 1.88 1.86 1.83 1.81 1.82 1.83 1.80 1.75 1.71 1.70 1.73 1.76 1.82 1.81 1.70 1.61 1.60 1.60 1.57 1.58 1.57 1.52 1.44 1.42 1.47 1.48 1.46 1.40 1.36 1.31 1.24 1.16 1.12 1.12 1.14 1.22 1.20 1.42 1.60 1.41 1.16 1.04 1.13 1.37 1.44 1.43 1.44 1.50 1.46 1.33 1.31 1.30 1.36 1.46 1.51 1.53
1.74 1.72 1.72 1.69 1.66 1.65 1.61 1.57 1.55 1.57 1.56 1.57 1.57 1.59 1.63 1.65 1.67 1.69 1.70 1.75 1.76 1.79 1.82 1.85 1.88 1.91 1.92 1.91 1.91 1.93 1.92 1.91 1.91 1.89 1.83 1.79 1.79 1.79 1.76 1.73 1.73 1.76 1.77 1.78 1.78 1.70 1.69 1.67 1.64 1.65 1.66 1.63 1.54 1.56 1.60 1.52 1.51 1.36 1.33 1.24 1.22 1.26 1.28 1.28 1.38 1.43 1.47 1.60 1.44 1.16 0.97 1.01 1.11 1.28 1.30 1.38 1.46 1.44 1.34 1.31 1.29 1.28 1.28 1.28 1.28
1.83 1.82 1.80 1.77 1.78 1.71 1.65 1.62 1.62 1.63 1.62 1.61 1.58 1.58 1.61 1.64 1.66 1.67 1.68 1.70 1.71 1.73 1.74 1.76 1.76 1.78 1.84 1.86 1.87 1.91 1.98 1.96 1.92 1.89 1.87 1.83 1.80 1.77 1.77 1.76 1.73 1.72 1.73 1.74 1.74 1.75 1.77 1.75 1.73 1.67 1.80 1.81 1.67 1.69 1.67 1.62 1.50 1.41 1.34 1.27 1.33 1.35 1.34 1.39 1.52 1.54 1.57 1.59 1.37 1.14 0.94 0.91 1.02 1.15 1.17 1.24 1.36 1.35 1.28 1.23 1.24 1.22 1.19 1.18 1.17
1.81 1.81 1.79 1.76 1.82 1.88 1.88 1.87 1.83 1.79 1.78 1.74 1.67 1.63 1.61 1.63 1.66 1.70 1.73 1.77 1.80 1.83 1.88 1.90 1.90 1.88 1.83 1.83 1.86 1.90 1.99 2.02 1.99 1.94 1.87 1.84 1.81 1.78 1.75 1.73 1.75 1.74 1.72 1.72 1.75 1.81 1.83 1.85 1.83 1.82 1.83 1.85 1.81 1.70 1.61 1.61 1.58 1.57 1.51 1.45 1.49 1.52 1.60 1.73 1.75 1.74 1.63 1.58 1.43 1.16 0.83 0.86 1.01 1.05 1.10 1.17 1.25 1.23 1.20 1.15 1.14 1.12 1.11 1.10 1.12
2.03 1.98 1.97 2.00 1.98 1.97 1.98 1.95 1.95 1.93 1.89 1.85 1.80 1.76 1.73 1.72 1.74 1.76 1.80 1.83 1.88 1.92 1.94 1.98 2.01 2.05 2.07 2.02 1.96 1.97 2.05 2.10 2.11 2.09 2.00 1.94 1.87 1.81 1.74 1.72 1.69 1.70 1.72 1.77 1.78 1.84 1.90 1.90 1.88 1.84 1.80 1.72 1.64 1.61 1.63 1.65 1.65 1.66 1.63 1.62 1.65 1.69 1.66 1.59 1.55 1.63 1.53 1.55 1.45 1.17 0.94 0.86 1.01 0.99 1.06 1.16 1.16 1.10 1.12 1.12 1.09 1.04 1.01 1.00 1.02
1.97 1.93 1.95 2.00 2.04 2.00 1.96 1.97 1.97 1.98 1.99 1.98 1.94 1.89 1.83 1.81 1.81 1.83 1.86 1.88 1.90 1.91 1.93 1.98 2.01 2.02 2.04 2.05 2.06 2.04 2.10 2.08 2.08 2.13 2.15 2.09 1.97 1.87 1.81 1.74 1.70 1.67 1.69 1.73 1.74 1.73 1.73 1.78 1.75 1.65 1.57 1.52 1.53 1.58 1.65 1.69 1.67 1.64 1.57 1.53 1.54 1.65 1.57 1.48 1.52 1.54 1.46 1.43 1.36 1.24 1.03 0.91 0.98 1.01 1.08 1.16 1.08 1.05 1.04 1.02 1.02 1.01 0.98 0.95 0.93
1.97 1.96 1.99 2.04 2.07 2.09 2.09 2.07 2.07 2.00 1.98 2.01 2.02 2.00 1.96 1.91 1.88 1.85 1.85 1.84 1.85 1.87 1.90 1.96 2.00 2.02 2.04 2.08 2.10 2.04 2.02 2.03 2.06 2.03 2.07 2.13 2.06 2.00 1.90 1.80 1.73 1.72 1.74 1.75 1.72 1.71 1.68 1.63 1.59 1.55 1.52 1.54 1.57 1.60 1.67 1.68 1.65 1.62 1.53 1.43 1.60 1.65 1.55 1.51 1.43 1.47 1.44 1.36 1.28 1.24 1.03 0.94 0.98 1.00 0.98 1.09 1.13 1.03 1.01 0.95 0.91 0.92 0.95 0.93 0.90
1.96 1.98 1.97 1.96 2.01 2.05 2.07 2.07 2.10 2.09 2.06 2.04 2.02 2.02 2.03 2.03 2.01 1.98 1.93 1.90 1.86 1.87 1.88 1.90 1.98 2.00 1.99 2.04 2.10 2.12 2.10 2.08 2.06 2.06 2.07 2.10 2.07 2.04 1.99 1.89 1.79 1.75 1.81 1.82 1.75 1.68 1.64 1.60 1.55 1.53 1.54 1.60 1.64 1.67 1.71 1.72 1.70 1.68 1.67 1.65 1.71 1.64 1.52 1.48 1.44 1.39 1.27 1.19 1.20 1.23 0.98 0.95 0.94 0.94 0.94 0.85 0.82 0.93 0.95 0.90 0.83 0.82 0.83 0.84 0.83
Wind_Speed
15 14 14 13 12 12 12 12 11 11 11 10 10 10 10 9 9 8 8 9 10 10 10 10 10 10 10 10 10 10 10 11 11 12 12 12 12 12 12 11 11 11 10 10 10 9 9 9 9 9 9 9 10 10 10 11 11 12 13 13 14 14 14 14 15 15 16 16 16 16 16 16 16 15 15 15 15 15 14 14 15 15 15 15 15
14 13 13 12 12 12 11 11 11 11 10 10 10 10 9 9 9 8 9 9 10 10 10 10 10 10 10 10 10 10 10 11 11 11 12 12 11 11 11 11 11 10 10 10 9 9 9 9 8 8 8 9 10 10 11 11 11 12 13 14 14 14 15 15 15 16 16 16 16 16 16 16 16 16 16 16 16 16 16 16 16 16 16 16 16
13 12 12 11 11 11 11 11 11 11 11 10 10 9 9 9 8 8 9 9 9 9 10 10 10 10 9 9 10 10 10 11 11 11 11 11 11 11 11 10 10 9 9 9 9 8 8 8 8 8 8 9 9 10 11 11 12 12 13 14 14 15 15 15 15 16 16 16 17 17 17 17 17 17 17 17 17 17 17 17 17 17 17 17 17
11 11 11 11 11 11 10 11 11 11 10 10 9 9 8 8 8 8 8 8 9 9 9 10 10 9 9 9 9 10 10 10 10 10 10 10 10 10 10 9 9 8 8 8 8 8 8 7 7 8 8 9 9 10 11 11 12 12 13 14 14 15 15 15 15 16 16 17 17 17 17 17 17 17 17 17 17 18 18 18 19 19 19 19 19
10 10 10 10 10 10 10 10 10 11 10 9 9 8 8 8 7 7 8 8 9 9 9 9 9 9 9 9 9 9 9 10 10 10 9 9 9 9 9 8 8 7 7 7 7 7 7 7 7 7 8 8 9 10 10 11 12 12 13 14 14 15 15 15 15 15 16 17 17 17 17 17 17 17 18 18 18 18 19 19 19 20 20 20 20
9 9 9 9 10 10 10 10 10 10 9 9 8 8 7 7 7 7 8 8 8 9 9 9 9 9 9 8 9 9 9 9 8 8 8 8 8 8 7 7 7 7 6 6 6 6 6 7 7 7 8 8 9 10 11 11 12 13 13 14 14 15 15 15 15 16 16 17 17 18 17 17 17 17 18 18 19 19 19 20 20 20 21 21 21
9 9 9 9 9 10 10 10 10 9 9 8 8 7 7 7 7 7 7 8 8 8 8 8 8 8 8 8 8 8 8 8 7 7 7 7 7 6 6 6 6 6 6 5 5 5 5 6 6 7 7 8 9 10 11 12 12 13 13 14 14 15 15 15 15 16 16 17 18 18 18 17 18 18 18 19 19 20 20 21 21 21 21 21 21
9 9 9 9 9 9 9 9 9 9 8 8 7 7 7 6 6 6 7 7 7 7 8 7 7 7 7 7 7 7 7 7 6 6 6 6 5 5 5 5 5 5 5 5 5 5 5 5 6 7 8 8 9 10 11 12 12 13 13 14 14 15 15 15 15 16 16 17 18 18 18 18 18 19 19 20 20 21 21 21 22 22 22 22 22
9 9 9 9 9 9 9 9 9 8 8 8 7 6 6 6 6 6 7 7 7 7 7 7 6 6 6 6 6 6 6 6 6 5 5 5 4 4 4 4 4 4 4 4 4 5 5 6 7 7 8 8 9 10 11 12 12 13 13 14 14 15 15 15 15 16 16 17 18 18 18 18 19 19 20 20 21 21 22 22 22 23 22 22 22
8 8 9 9 9 9 8 8 8 8 8 7 7 6 6 6 6 6 6 6 6 7 7 6 6 6 5 5 5 6 6 6 5 5 4 4 4 3 3 3 3 3 4 4 4 5 5 6 7 8 8 9 9 10 11 12 13 13 13 14 14 15 15 15 15 16 17 17 18 18 18 19 19 20 21 21 22 22 22 23 23 23 22 22 22
8 8 8 8 8 8 8 7 7 7 7 7 6 6 6 5 5 5 6 6 6 6 6 6 5 5 5 5 5 5 5 5 4 4 3 3 3 2 2 2 2 3 3 4 4 5 5 6 7 8 8 9 10 10 12 12 13 13 13 14 14 15 15 14 15 16 17 18 18 18 19 19 20 20 21 21 22 23 23 23 23 23 23 22 22
8 8 8 8 8 8 7 7 7 7 6 6 6 6 5 5 5 5 6 6 6 6 5 5 5 5 4 4 4 4 4 4 3 3 2 2 2 2 1 2 2 2 3 4 5 5 6 6 7 8 8 9 10 11 12 13 13 13 13 14 14 14 14 14 15 16 17 18 18 18 19 19 20 20 21 22 22 23 24 24 23 23 23 22 22
8 7 7 8 8 8 7 7 6 6 6 6 5 5 5 5 5 6 6 5 5 5 5 4 5 4 4 4 4 3 3 3 2 1 1 1 1 1 1 2 2 3 3 4 5 6 6 7 7 8 9 9 10 11 12 13 13 13 13 14 14 14 14 14 15 16 17 18 18 18 18 19 19 20 21 21 22 24 24 25 24 23 23 22 22
7 7 7 7 8 7 7 7 6 6 6 5 5 5 5 5 5 5 5 5 4 4 4 4 4 4 3 3 3 2 2 1 1 0 1 1 1 1 1 2 2 3 4 4 5 6 7 7 8 8 9 10 11 11 12 13 13 14 14 13 13 14 14 15 15 16 17 18 18 18 18 19 19 19 20 21 22 23 25 25 25 24 23 22 22
7 7 7 7 7 7 7 6 6 6 5 5 5 5 5 5 5 5 4 4 4 4 3 3 4 4 3 2 2 2 1 0 0 1 1 1 1 1 1 2 3 4 4 5 6 6 7 7 8 8 9 10 11 12 12 13 13 14 13 13 13 14 14 15 15 16 17 18 18 18 18 18 18 19 19 20 21 23 24 25 25 24 23 22 22
7 7 7 7 7 7 6 6 6 6 6 6 6 6 5 5 4 4 4 4 3 3 3 3 3 3 2 2 2 1 1 0 1 1 1 2 1 1 2 3 3 4 5 5 6 7 7 7 8 9 10 11 11 12 12 13 13 13 13 12 13 14 14 15 16 17 18 18 18 18 18 18 18 18 19 19 21 22 24 25 25 24 22 22 22
6 6 6 6 6 6 6 6 6 5 6 6 6 5 5 4 4 3 3 3 3 3 3 3 3 2 2 1 1 1 0 1 1 1 2 2 2 2 2 3 4 4 5 6 7 7 7 7 8 9 10 10 11 12 12 12 12 12 12 12 13 14 14 15 16 17 18 18 18 19 18 18 18 18 18 19 20 21 23 24 24 23 22 22 22
6 6 6 6 6 5 6 5 5 5 6 6 5 5 5 4 3 3 3 3 3 3 3 3 2 2 1 1 0 1 0 0 1 1 2 2 2 2 3 3 4 4 5 6 7 7 7 8 8 9 10 10 11 11 12 12 11 11 11 12 13 14 14 15 16 17 17 18 19 19 18 18 18 18 18 18 20 21 22 22 23 23 22 22 22
6 5 5 5 5 5 5 5 5 5 5 5 5 5 5 4 3 3 2 2 3 3 2 2 2 1 1 0 0 0 0 0 0 1 2 2 2 3 3 4 4 4 5 6 7 7 7 8 8 9 10 10 10 11 11 11 11 11 11 12 13 14 14 15 16 16 17 18 18 18 18 18 18 18 18 18 19 20 21 21 22 23 22 21 22
5 5 5 5 4 4 4 4 4 4 5 5 5 4 4 4 3 3 2 2 2 2 2 1 1 1 0 0 0 0 1 1 1 1 2 2 3 3 4 4 5 5 5 6 7 7 7 8 8 9 9 10 10 11 10 10 11 11 11 12 13 14 14 15 16 16 17 18 18 18 18 18 18 18 17 18 19 20 20 20 21 22 22 21 21
5 5 5 5 4 4 4 4 4 4 4 4 4 4 4 4 3 3 3 2 2 2 2 1 1 1 1 1 1 1 1 1 2 2 2 3 3 4 4 5 5 6 6 6 7 7 7 8 8 9 9 9 10 10 10 10 11 11 11 12 13 13 14 15 16 16 17 18 18 17 18 18 18 18 17 17 18 19 19 19 20 21 21 21 20
5 5 5 5 4 4 4 4 4 4 4 4 3 3 4 4 3 3 3 3 3 2 2 2 2 1 1 1 1 2 2 2 3 3 3 3 4 4 5 5 6 7 7 7 7 8 8 8 8 9 9 9 10 10 10 10 10 11 11 12 12 13 14 15 15 16 16 17 17 17 18 18 18 18 17 17 18 18 18 19 19 20 20 20 20
5 5 5 5 5 4 4 4 4 4 4 3 3 3 3 3 3 3 3 3 3 3 3 3 2 2 2 2 2 2 2 3 3 3 4 4 4 5 5 5 6 7 7 7 8 8 8 8 8 8 8 9 10 10 10 10 10 11 11 12 13 13 14 15 15 15 16 16 16 17 18 18 18 18 17 17 17 17 17 18 18 19 19 19 19
5 5 5 5 5 5 4 4 4 4 4 3 3 3 3 3 3 3 3 3 3 3 3 3 3 3 3 3 3 3 3 3 4 4 4 5 5 5 6 6 6 6 7 7 7 7 7 7 7 8 8 9 9 9 9 10 10 11 12 12 13 13 14 14 15 15 15 16 16 16 17 18 18 18 17 17 16 16 17 17 18 18 18 19 18
6 5 5 5 5 5 5 5 4 4 4 4 4 4 3 3 3 3 3 3 3 3 3 3 4 4 4 4 4 4 4 4 4 4 4 5 5 5 5 6 6 6 6 7 7 7 7 7 7 8 8 8 9 9 9 10 10 11 12 12 12 13 14 14 15 15 15 15 15 16 17 17 17 17 17 17 16 16 16 17 17 17 17 18 18
6 6 6 5 5 5 5 5 5 5 5 5 4 4 4 4 3 3 4 4 4 4 3 4 4 4 4 4 4 4 4 5 5 4 4 4 5 5 5 5 6 6 6 6 7 7 7 7 7 7 8 8 9 9 10 10 10 11 11 11 12 13 13 14 14 15 15 15 16 16 17 17 17 17 17 17 16 15 16 16 16 16 16 17 17
6 6 6 6 6 6 5 5 5 5 5 5 5 5 5 4 4 4 4 4 4 4 4 4 4 4 4 4 5 5 5 5 5 4 4 4 5 5 5 5 5 6 6 6 6 7 7 7 7 7 8 9 9 9 10 10 10 11 11 11 11 12 13 14 14 15 16 16 16 16 16 16 16 17 17 17 16 15 15 15 15 15 15 16 16
6 6 6 6 6 6 6 6 6 6 6 6 6 5 5 5 5 5 5 5 5 5 5 5 5 5 5 5 5 5 5 5 5 5 5 5 4 5 5 5 5 6 6 6 7 7 7 8 8 8 8 9 9 9 10 10 10 10 10 11 11 12 13 14 14 15 16 16 16 16 16 16 16 16 16 16 16 15 14 14 13 14 14 15 15
7 7 7 7 7 6 6 6 6 6 6 6 6 6 6 6 6 6 6 6 6 6 5 5 5 5 6 6 6 6 5 5 5 5 5 5 5 5 5 5 5 5 6 6 7 7 7 8 7 8 8 9 9 9 10 10 10 10 10 11 12 13 13 14 15 15 16 16 17 16 16 16 16 16 15 15 15 14 13 13 13 13 14 14 15
8 8 8 7 7 7 7 6 7 6 6 6 6 6 6 6 6 6 6 6 6 6 6 6 6 6 6 6 6 6 6 6 6 5 5 5 5 5 6 6 6 6 6 6 7 7 7 8 7 8 8 9 9 9 9 9 10 10 11 11 12 13 14 14 15 16 16 16 17 17 16 16 16 15 15 15 14 13 12 12 12 13 13 13 14
9 9 8 8 8 7 7 7 7 7 7 7 6 6 6 6 6 6 6 6 6 7 7 7 6 7 7 7 7 7 7 6 6 6 6 6 6 6 6 6 6 6 6 6 7 7 7 7 8 8 8 9 9 9 9 9 10 10 11 12 13 13 14 15 15 15 16 16 16 16 16 15 15 15 14 14 14 13 12 12 12 12 12 12 13
9 9 9 9 8 8 8 8 8 7 7 7 7 7 6 7 7 7 7 7 7 7 7 7 7 7 7 7 7 7 7 7 7 7 7 7 7 7 7 7 7 7 7 7 7 8 8 8 8 8 8 9 9 9 9 9 10 11 12 12 13 14 14 14 15 15 15 16 16 15 15 14 14 14 14 14 13 13 13 12 12 12 11 11 12
10 10 9 9 9 9 9 9 8 8 8 8 7 7 7 7 7 7 7 7 7 7 7 7 7 7 7 7 7 7 7 8 8 8 8 8 8 8 7 8 7 7 7 7 7 8 8 8 8 8 8 9 9 9 10 10 10 11 12 13 13 14 14 14 14 14 15 15 15 14 14 14 13 13 13 13 13 13 13 13 12 11 10 10 11
11 10 10 10 9 9 9 9 9 9 9 9 8 8 8 8 8 8 8 8 8 8 8 8 7 7 7 8 8 8 8 8 8 8 9 9 8 8 8 8 8 7 7 7 7 8 8 8 8 8 8 9 10 10 10 11 11 11 12 12 13 13 13 13 13 13 14 14 14 14 14 13 13 13 13 13 13 13 13 13 12 11 10 10 10
11 11 11 10 10 10 10 10 10 10 10 10 9 9 9 9 9 9 8 9 9 8 8 8 8 8 8 8 8 8 8 8 8 8 9 9 8 8 8 8 8 8 8 8 8 8 8 9 8 9 9 10 10 10 10 11 11 12 12 12 13 13 13 13 12 12 13 13 13 13 13 13 13 13 13 13 13 13 13 13 12 11 10 10 9
12 12 11 11 11 11 11 10 10 10 10 10 10 10 10 10 10 10 9 9 9 9 9 9 9 9 9 9 9 9 9 9 9 9 9 9 9 9 9 9 9 9 9 8 9 9 9 9 9 10 10 10 11 11 11 11 11 12 12 12 13 13 13 12 12 12 12 12 13 13 13 13 13 13 13 13 13 13 12 12 12 11 10 9 9
13 13 12 12 11 11 11 11 11 11 11 11 11 11 11 11 11 11 11 10 11 11 10 10 10 10 10 10 10 10 10 10 10 10 10 10 10 10 10 10 10 10 10 9 9 9 9 10 10 11 11 11 11 11 11 11 12 11 12 12 13 13 12 12 12 12 12 12 12 13 13 13 13 13 13 13 13 12 12 12 11 11 11 10 9
14 14 14 13 13 12 12 12 12 12 12 12 12 12 12 12 12 12 12 12 12 12 12 12 12 11 11 11 11 11 11 11 11 11 11 11 11 11 11 11 11 10 10 10 10 10 10 11 11 12 12 12 12 11 11 11 12 12 12 12 12 12 12 12 12 12 12 12 12 12 13 12 12 12 12 12 12 12 12 12 12 11 11 10 9
15 15 15 15 14 14 14 13 13 13 13 13 13 12 12 12 13 13 13 13 13 13 13 13 13 13 13 13 12 12 12 12 12 12 12 12 12 12 12 12 11 11 11 11 11 11 11 11 12 12 13 12 12 12 12 12 12 12 12 12 12 12 12 12 12 12 12 12 12 12 12 12 12 12 12 11 12 12 12 12 12 12 11 10 10
16 16 16 16 15 15 15 15 15 15 15 14 14 14 14 14 14 14 14 14 14 14 14 14 14 14 14 14 14 14 14 14 14 14 14 13 13 13 13 13 12 12 13 12 12 12 12 12 12 12 12 12 12 12 12 12 12 12 12 12 12 12 12 12 12 12 12 12 13 13 12 12 12 11 11 11 11 11 11 11 12 12 12 11 10
17 17 16 16 16 16 16 16 16 16 16 16 16 15 15 15 15 15 15 15 15 15 15 15 15 15 15 15 15 15 15 15 15 15 15 15 15 14 14 14 14 14 14 14 14 13 13 13 13 13 13 13 13 13 13 13 13 13 13 13 13 12 12 11 11 12 12 12 13 12 12 12 11 11 11 10 10 11 11 11 11 11 11 11 11
17 17 17 17 17 17 17 17 17 17 17 17 17 17 17 17 17 17 17 16 16 16 16 16 16 16 16 16 16 16 16 16 17 17 16 16 16 16 16 15 15 15 15 15 15 15 15 15 14 14 13 13 13 13 13 13 14 14 14 14 13 13 13 12 12 12 12 12 12 12 12 11 11 10 10 10 10 11 11 11 11 11 11 11 11
18 17 17 17 17 17 17 17 17 18 18 18 18 19 19 19 19 18 18 18 17 17 17 17 17 17 17 17 17 17 17 17 17 17 17 17 17 17 17 17 17 17 17 17 17 17 16 16 16 15 15 15 14 14 14 14 14 14 14 14 14 14 13 13 13 13 13 13 12 12 11 11 10 9 10 10 10 11 11 11 11 11 11 11 11
18 18 18 18 17 17 17 17 17 18 18 18 18 18 19 19 19 19 18 18 18 18 18 18 18 18 18 18 18 17 17 17 17 17 17 17 17 18 18 18 18 18 18 18 18 17 17 17 16 16 16 16 15 15 15 15 15 15 15 15 14 14 13 13 13 14 14 14 13 12 12 11 10 9 9 10 10 10 11 12 12 12 11 11 11
18 18 18 18 18 18 18 18 18 18 18 18 18 18 18 18 19 19 19 19 19 19 19 19 19 19 19 19 19 19 18 18 18 17 18 18 18 19 19 19 19 19 19 19 19 18 18 18 17 17 17 17 17 16 16 16 16 16 16 15 15 14 14 14 14 14 14 14 13 13 12 11 10 9 9 9 9 10 11 12 12 11 11 11 11
18 19 19 19 20 19 19 19 19 19 19 19 19 19 19 19 19 20 20 20 20 20 21 21 21 21 21 21 21 21 21 20 20 19 19 19 19 20 20 20 20 20 20 20 20 20 19 19 19 18 18 18 18 18 17 17 17 17 16 16 15 15 14 14 14 14 14 14 13 13 12 11 10 9 9 9 9 10 11 11 12 11 11 11 11
20 20 21 21 21 20 20 20 20 20 20 20 20 20 20 20 21 21 21 21 21 22 22 22 22 23 23 23 23 24 24 23 23 22 21 21 21 21 21 20 20 20 20 20 20 20 20 20 20 19 19 19 19 19 19 19 18 18 17 16 15 15 14 14 14 14 14 14 13 12 11 11 11 10 9 10 10 10 11 11 12 12 12 12 12
20 21 21 21 21 21 22 22 22 22 22 21 21 21 21 22 22 22 22 23 23 24 24 25 25 25 25 25 26 26 26 26 25 24 24 23 23 22 22 21 21 21 21 21 21 21 20 20 20 20 20 20 20 20 20 20 19 18 17 16 15 15 14 14 14 14 14 14 13 12 11 11 11 10 10 10 10 11 11 12 12 12 12 12 12
21 22 22 22 23 23 24 24 25 25 24 24 24 24 24 24 24 24 24 24 25 25 26 27 27 28 28 28 28 28 29 28 28 27 27 25 24 24 23 23 22 22 22 22 22 22 22 21 21 21 21 21 21 21 20 20 19 18 17 16 16 16 15 15 15 14 14 14 13 12 11 11 11 11 11 11 11 11 12 12 13 13 13 13 13
21 22 22 23 23 23 24 25 26 26 27 26 26 26 26 26 26 26 26 26 27 28 28 29 29 30 30 31 31 31 31 30 30 29 29 28 27 26 25 24 23 23 23 23 23 23 23 23 22 22 22 22 21 21 20 20 19 18 18 17 17 17 17 16 16 15 14 14 13 12 12 12 12 12 12 12 12 12 12 13 13 13 13 13 14
20 20 20 21 21 21 22 22 23 25 26 27 28 28 27 27 28 28 28 29 29 29 30 30 31 31 32 32 32 32 32 32 31 31 30 30 29 28 26 25 25 24 24 23 23 23 23 23 23 23 22 22 22 21 20 20 19 19 19 18 18 18 17 17 16 15 14 14 13 13 12 12 12 13 13 13 13 13 13 13 13 14 14 14 14
Wind_Direction
118 118 118 117 116 116 116 116 115 114 114 113 113 113 110 106 103 101 102 106 109 111 112 112 112 110 109 107 105 104 102 102 101 101 102 101 100 99 97 96 95 93 90 87 83 78 71 66 60 54 48 43 39 36 33 30 26 23 22 21 19 17 16 15 14 13 11 11 10 10 10 10 9 8 8 7 6 5 3 0 358 355 350 346 343
120 120 119 117 117 118 118 118 118 117 116 116 114 112 109 104 101 101 103 108 110 113 114 113 111 110 110 107 105 104 103 103 103 103 103 101 99 97 96 94 93 90 88 85 80 76 70 65 60 54 49 44 40 36 33 29 26 23 23 22 20 18 17 16 15 13 12 12 11 11 11 10 9 8 7 6 6 5 3 1 357 353 349 346 343
123 122 120 118 117 119 119 119 119 119 118 116 113 111 109 104 100 101 104 108 111 113 115 114 112 110 110 108 106 105 105 105 105 104 103 100 98 96 94 92 89 87 85 82 78 73 69 64 60 55 49 44 39 35 32 28 25 22 21 21 19 18 17 16 14 13 12 11 11 10 10 9 8 7 6 5 4 2 1 359 357 353 349 345 342
126 124 121 119 120 121 121 121 121 119 118 116 114 111 107 102 98 99 104 108 111 114 114 114 112 111 110 108 107 107 106 106 106 105 103 100 98 97 94 90 87 84 81 79 75 69 65 61 57 53 47 42 36 32 28 25 23 20 19 18 17 16 14 13 11 11 10 10 9 9 8 7 7 6 5 3 2 360 358 356 355 352 349 346 343
128 126 124 123 124 124 124 123 122 121 120 118 115 111 106 101 97 98 105 108 111 114 114 114 113 112 111 109 109 109 109 108 108 107 104 101 99 97 93 88 85 81 77 75 71 65 61 57 53 47 41 36 31 27 24 21 20 17 15 15 15 13 11 9 8 8 8 7 6 6 5 5 5 4 2 1 359 357 355 353 352 350 349 347 344
130 128 127 127 127 127 126 124 124 124 123 121 117 112 107 103 99 100 106 109 112 115 115 115 115 114 113 112 112 113 111 110 110 110 107 104 100 95 91 86 81 76 72 69 66 61 55 51 45 39 33 28 24 21 18 17 16 14 12 11 12 11 8 6 5 5 5 4 3 2 2 2 2 1 359 358 357 355 354 352 350 349 348 346 344
132 131 129 129 129 128 127 126 127 127 126 123 118 114 109 104 100 102 108 110 112 118 120 119 117 116 115 114 114 115 113 110 110 110 108 105 100 94 87 81 76 71 66 62 56 49 43 38 33 28 23 19 16 14 13 12 12 10 9 8 9 8 6 4 2 2 3 2 1 1 1 0 360 359 358 357 355 354 353 351 349 348 347 345 345
136 134 132 133 132 131 129 128 129 128 126 123 120 117 113 106 101 105 112 114 115 121 125 123 120 117 115 113 115 116 115 113 112 110 107 104 99 92 83 76 70 64 60 54 45 35 28 24 20 16 14 11 9 8 7 8 7 6 5 6 7 6 4 3 1 1 2 2 1 1 1 1 360 359 357 356 355 354 352 351 349 348 347 346 346
138 138 137 136 137 135 132 131 129 127 126 124 122 119 114 108 103 108 116 119 120 123 126 126 122 118 114 112 116 120 118 117 116 113 110 106 98 90 80 73 66 58 52 46 36 26 20 17 14 11 9 6 5 4 4 3 3 3 2 3 4 3 3 2 1 360 0 1 1 1 1 0 0 359 358 356 355 354 353 351 350 349 349 348 348
139 140 140 140 140 140 137 134 131 130 129 128 126 121 115 110 104 109 117 120 124 126 127 128 124 119 114 111 117 122 122 122 120 117 113 107 99 88 77 69 60 50 41 34 26 19 14 12 11 10 7 5 4 3 2 1 360 359 359 360 360 0 0 0 360 358 358 359 359 359 359 359 360 359 358 357 356 355 354 353 352 351 351 350 350
141 142 143 144 145 145 143 139 135 135 135 133 130 125 119 113 107 110 117 119 123 128 131 131 128 124 119 115 119 123 123 124 121 117 111 105 97 86 73 61 48 35 26 19 13 9 6 5 5 5 5 4 2 1 0 359 357 357 357 357 357 357 357 358 358 356 356 357 358 358 358 358 359 359 359 358 357 356 355 355 354 354 353 353 353
142 145 147 148 150 150 149 146 142 141 140 137 133 129 125 118 112 113 117 120 121 126 133 135 133 130 127 124 127 128 126 123 119 112 101 92 87 79 61 39 24 13 8 6 3 0 359 358 358 359 0 360 358 357 356 356 355 354 354 354 354 355 356 357 356 354 354 355 356 357 357 357 357 358 358 358 358 358 357 357 356 356 356 356 356
142 145 147 150 151 153 153 152 149 147 146 144 140 136 131 124 118 118 119 118 119 123 132 136 135 133 129 128 134 138 133 126 115 98 73 56 49 47 38 22 9 359 357 358 356 354 352 351 352 352 353 353 353 352 351 352 352 351 351 351 352 354 355 356 354 353 352 353 354 355 356 355 355 357 357 358 359 360 360 360 359 358 359 359 359
141 143 146 150 152 154 156 156 154 153 152 151 148 143 137 129 123 123 121 117 116 121 128 132 132 132 128 126 134 139 141 134 113 36 2 355 349 353 359 360 354 351 354 352 350 348 345 343 344 345 346 347 347 347 347 348 349 349 348 349 351 353 355 355 353 352 352 352 353 355 355 354 353 355 356 357 359 360 1 2 1 1 1 2 3
137 139 142 147 150 152 155 156 156 157 158 156 153 149 143 135 129 129 126 120 120 123 127 131 131 131 126 122 128 129 135 139 310 300 317 327 320 320 329 336 338 341 344 345 343 341 339 339 340 341 342 343 344 344 344 344 346 346 347 348 350 352 354 354 353 352 352 352 353 354 354 352 351 353 355 357 359 0 2 3 3 4 4 6 6
136 136 137 141 145 148 152 155 156 158 160 158 157 156 150 143 138 136 132 125 124 126 128 131 135 136 131 127 132 125 126 263 293 291 306 320 315 314 320 324 329 333 336 338 337 334 334 337 339 339 340 341 342 343 343 343 344 345 345 347 349 351 353 354 354 353 353 352 352 353 353 351 351 351 354 357 359 1 2 4 5 5 7 9 9
141 139 138 139 142 145 149 152 155 157 160 159 161 163 160 155 153 148 139 130 130 131 127 124 129 138 140 139 130 122 165 252 280 287 304 315 314 314 319 323 327 331 334 335 335 332 332 336 338 338 337 339 341 342 344 344 345 346 346 346 347 349 351 353 354 354 355 354 354 354 354 352 351 352 355 358 360 2 3 4 6 6 9 11 11
147 144 142 142 144 147 150 153 156 158 160 161 165 170 170 168 168 163 147 136 136 135 131 128 130 136 143 146 133 140 197 263 272 283 300 306 304 305 313 322 324 328 334 335 334 333 331 334 336 337 337 338 339 341 345 347 347 348 347 347 347 348 350 353 354 356 357 357 356 356 356 355 354 354 357 359 1 3 3 5 6 7 10 13 14
152 151 149 148 149 151 154 157 158 159 163 166 170 176 177 177 177 173 160 146 138 134 133 138 144 146 140 115 140 209 273 327 292 291 303 301 300 303 307 317 319 322 331 333 332 332 331 333 335 336 338 338 339 343 346 348 348 349 350 350 348 348 350 352 354 356 357 357 357 358 359 359 359 358 359 0 2 3 4 5 7 9 12 15 16
159 159 158 158 156 155 157 159 160 162 166 169 175 179 181 184 184 180 174 165 153 144 143 149 158 170 169 55 336 320 317 327 315 311 314 310 311 313 315 320 321 324 331 332 332 332 334 335 336 337 340 341 343 346 347 348 348 348 351 351 349 349 351 353 355 356 357 356 357 358 360 1 2 1 1 1 2 3 5 6 8 10 13 16 18
168 168 167 167 165 163 164 163 164 168 171 173 178 183 187 191 193 192 190 188 185 179 176 181 192 218 255 280 311 325 322 322 325 321 319 318 318 318 321 325 326 326 329 330 331 333 334 336 338 341 345 346 346 348 349 348 348 348 349 351 351 351 353 354 355 356 357 357 358 359 0 2 2 1 0 1 1 3 6 8 9 12 14 17 19
175 176 176 177 177 175 174 173 175 178 179 180 184 188 191 195 200 202 203 206 210 211 214 219 227 243 265 278 298 313 311 313 320 321 317 316 315 314 318 323 323 324 327 328 330 332 334 336 339 342 346 347 347 348 349 348 348 349 349 351 352 352 352 353 354 355 356 358 359 359 360 0 1 0 359 360 1 3 7 9 9 12 15 18 20
180 182 184 186 186 185 183 185 188 189 189 189 194 198 198 201 206 208 210 216 220 223 229 237 245 258 272 279 289 299 301 304 310 313 312 310 310 310 315 320 320 321 325 328 330 333 336 336 338 341 344 345 347 348 348 347 348 349 349 350 351 351 352 353 353 354 355 356 358 359 359 359 0 1 360 1 2 4 8 10 10 13 16 18 21
188 189 192 193 192 192 192 193 194 197 199 201 205 208 209 211 215 216 215 222 230 234 239 246 252 260 273 281 284 290 293 298 303 306 305 306 307 308 313 320 321 322 327 330 332 336 338 339 339 342 344 345 345 346 345 344 345 347 347 348 350 351 352 352 353 354 354 355 356 357 358 360 2 3 3 3 4 5 8 10 11 14 16 19 22
198 199 200 199 199 199 202 203 202 204 208 211 214 217 219 220 223 226 226 230 237 242 245 252 258 262 271 278 282 286 289 295 300 302 303 306 310 311 314 319 321 323 328 331 334 337 340 342 342 343 345 345 344 344 343 342 342 344 345 346 349 351 352 353 354 355 355 355 356 356 358 1 3 3 3 3 4 4 6 9 12 15 17 20 23
203 205 207 206 207 209 211 213 213 215 218 220 223 226 227 230 233 237 240 242 243 247 251 258 262 264 270 276 281 284 286 292 297 300 303 307 310 312 315 320 320 321 326 329 333 337 339 341 342 345 347 348 347 345 344 343 343 345 346 347 349 352 353 354 355 356 356 356 356 356 358 0 1 1 1 1 2 3 4 8 13 15 17 20 23
208 210 212 213 216 218 218 220 220 222 225 227 230 232 234 237 240 241 244 247 250 254 258 262 265 266 271 276 280 282 285 290 292 296 302 306 308 309 313 320 323 326 329 329 333 338 340 342 343 347 350 349 350 350 348 347 348 349 350 350 351 352 353 354 354 355 354 355 355 356 357 357 358 358 358 359 1 3 4 9 14 16 17 20 23
217 217 216 217 222 223 223 224 223 224 226 229 233 237 239 242 243 243 243 246 252 257 260 264 267 268 271 274 278 283 286 288 288 292 298 302 304 306 309 316 322 327 329 329 332 337 340 343 343 345 349 350 351 352 351 351 352 352 352 353 352 352 352 352 353 353 352 352 353 354 354 354 354 355 356 358 1 4 7 11 14 16 17 19 23
223 223 222 223 225 226 226 225 224 226 227 229 235 239 242 245 247 247 247 247 251 256 259 262 267 270 271 273 275 279 281 282 283 286 291 296 300 302 305 308 312 319 324 326 327 330 336 340 340 342 348 351 350 351 353 353 354 354 353 353 352 351 351 350 351 351 351 351 352 353 353 353 353 355 357 359 3 6 11 13 14 16 17 19 22
225 227 228 228 229 229 228 227 227 229 230 233 237 240 242 245 247 248 249 250 252 256 258 260 265 269 271 271 272 273 275 277 280 282 286 292 297 300 301 302 303 307 312 318 322 324 330 335 337 340 345 348 349 350 352 352 353 353 351 350 349 348 348 348 349 350 351 351 353 354 354 354 355 357 360 2 5 8 11 13 13 15 18 19 21
227 228 228 230 232 232 231 232 232 233 234 237 238 240 242 245 247 248 249 250 252 255 258 261 264 266 269 271 270 270 273 276 278 281 284 288 292 296 298 298 299 302 304 308 315 319 325 329 332 337 340 343 346 348 349 349 348 347 346 345 345 345 346 346 347 349 351 352 354 356 357 358 360 2 4 6 8 10 10 10 11 13 18 19 21
228 229 230 230 231 232 234 236 237 237 239 240 240 241 244 247 248 249 250 251 253 257 260 263 265 267 270 272 271 270 273 276 279 282 284 287 290 292 294 294 294 295 298 301 305 311 318 322 326 332 336 338 341 344 345 343 342 341 341 342 343 344 344 345 347 350 352 353 355 358 1 3 5 6 8 9 11 11 9 8 9 12 18 21 22
229 230 231 231 232 234 236 237 239 240 241 243 242 243 245 248 249 251 252 253 256 259 262 263 265 267 270 272 272 271 272 275 279 282 285 288 289 289 289 289 289 290 293 296 298 304 312 319 323 328 331 334 336 339 340 339 338 337 339 341 343 344 344 345 348 350 352 353 355 0 4 6 8 8 8 9 11 10 9 7 9 13 18 21 23
231 232 232 233 235 237 238 239 241 242 243 245 245 245 247 249 251 252 254 255 257 260 262 263 265 268 271 272 272 272 273 275 278 281 283 285 287 288 287 286 287 288 289 292 294 298 305 313 320 324 326 329 331 334 335 335 335 335 337 339 342 344 344 345 349 350 351 353 357 0 3 5 7 8 7 7 9 9 9 9 12 14 16 18 22
232 233 234 235 238 240 241 242 242 243 246 247 247 247 249 251 252 253 255 257 258 260 262 264 267 268 270 272 273 274 275 276 277 279 280 282 283 284 285 285 286 286 287 288 290 294 299 307 314 318 321 324 326 329 330 331 331 332 334 337 339 343 344 345 348 350 351 354 356 358 359 1 3 5 5 5 6 6 7 8 11 12 12 13 17
234 234 235 236 238 241 243 244 245 246 247 248 249 249 250 252 253 255 257 259 260 261 263 265 266 267 269 272 274 275 275 276 277 277 278 279 281 280 281 283 284 284 285 286 288 291 295 300 306 311 316 319 320 322 324 325 327 329 331 334 337 340 343 343 345 348 349 350 352 353 355 356 358 360 1 2 3 3 4 5 7 8 8 8 9
236 236 237 237 238 241 243 245 247 248 249 250 251 252 253 254 255 257 259 260 261 263 264 265 266 267 269 271 273 274 275 276 277 277 277 277 278 278 279 281 281 281 282 284 286 288 291 295 299 305 310 313 314 316 318 320 322 324 327 330 333 336 338 339 341 344 346 345 346 349 350 351 353 355 357 358 359 0 1 2 3 3 4 3 2
237 238 239 239 240 242 245 247 249 250 251 251 253 254 256 257 258 259 261 262 263 264 265 266 266 267 269 271 273 274 275 276 277 277 277 277 278 278 277 278 278 278 279 281 284 287 289 293 297 301 305 307 308 309 312 315 317 319 322 325 329 332 333 335 337 340 341 342 342 344 346 347 349 351 353 356 357 358 359 1 2 2 1 359 357
238 240 241 242 244 245 247 249 251 252 253 253 254 256 258 259 260 262 263 263 264 264 265 266 266 267 269 270 272 273 274 275 276 276 276 276 277 276 276 276 275 275 277 279 282 284 287 291 294 297 301 303 303 305 308 310 312 315 319 322 325 327 328 330 333 335 337 338 339 341 344 346 347 349 352 355 358 358 358 360 1 2 2 360 356
240 242 243 244 246 248 249 251 253 254 255 255 256 257 258 260 261 263 264 265 265 265 266 266 267 268 269 270 272 273 274 274 275 275 275 276 276 276 275 274 273 273 276 278 278 280 284 287 291 295 298 299 300 302 304 307 309 312 315 318 319 320 321 323 326 329 331 334 336 338 341 343 345 347 350 354 357 359 359 360 0 1 2 2 360
241 243 245 246 248 249 251 252 254 255 255 256 257 258 259 261 262 263 264 264 265 266 266 267 268 268 269 270 271 272 273 273 273 273 273 273 274 275 275 274 273 273 275 276 277 278 281 285 289 291 293 295 297 300 303 305 307 309 311 313 313 314 315 316 319 324 327 330 333 335 336 339 341 343 345 349 354 357 358 358 357 358 359 360 359
242 244 245 247 250 251 253 254 254 255 255 256 257 258 259 261 262 263 264 264 264 265 267 268 268 269 269 269 269 270 271 272 272 272 272 271 272 273 274 274 273 274 274 275 276 277 280 283 286 287 288 290 293 296 299 302 303 306 308 309 309 310 311 311 313 318 323 325 328 331 333 334 335 337 340 344 349 352 352 353 354 354 355 355 355
243 244 246 248 250 252 254 255 256 257 256 257 258 259 260 261 261 262 262 263 263 264 266 267 268 269 269 269 269 269 270 271 272 272 272 272 272 272 273 272 272 272 273 274 274 276 278 281 283 283 285 287 290 292 295 297 300 303 305 306 306 306 307 306 306 311 317 320 321 323 326 328 328 330 334 338 342 346 347 348 351 351 351 351 351
244 245 247 249 251 253 255 256 258 259 259 260 260 260 261 261 261 260 260 261 262 264 265 266 267 268 269 269 269 269 269 270 271 272 272 273 274 274 274 273 272 271 271 272 273 274 276 278 280 281 282 285 287 289 291 294 296 298 300 301 301 302 303 303 303 306 310 313 313 314 317 320 320 320 325 330 335 339 341 344 346 347 347 347 347
244 247 249 251 253 255 256 258 259 260 260 262 262 262 262 262 261 260 260 260 262 264 265 266 267 268 269 270 270 270 270 269 270 271 273 274 275 275 275 274 273 272 271 271 272 273 274 276 277 279 281 282 284 286 289 291 293 295 296 297 297 298 299 300 301 303 305 307 307 307 310 313 312 312 316 321 326 331 335 339 343 343 343 344 344
245 248 251 253 255 256 257 258 259 260 260 261 261 261 262 262 262 261 260 260 262 264 265 266 267 269 270 270 271 270 270 269 269 270 272 274 275 275 275 274 273 273 272 271 271 271 272 273 275 277 279 280 282 284 286 288 290 291 292 293 293 294 296 297 299 300 301 302 302 302 305 309 309 307 310 313 317 324 330 335 338 338 339 340 341
247 249 251 253 254 256 257 258 260 261 261 262 262 261 261 262 262 261 261 261 263 264 265 266 267 268 269 270 270 269 268 267 267 267 269 272 274 275 276 275 273 273 272 272 271 270 271 273 274 275 277 279 280 282 284 285 287 288 288 288 289 290 291 293 295 296 297 299 299 297 299 304 305 303 304 308 311 318 325 330 333 334 335 336 337
249 251 253 254 255 256 258 259 260 262 262 263 263 262 262 263 263 263 263 264 265 265 266 267 267 269 270 271 271 270 269 268 267 267 268 269 271 273 274 273 273 272 273 273 272 271 271 272 273 275 276 277 279 280 282 283 283 284 284 284 284 285 286 288 291 293 294 295 295 294 294 298 300 298 299 303 307 312 318 323 326 329 331 333 333
253 254 255 257 258 259 260 260 261 261 262 263 264 263 264 264 264 265 266 267 267 268 269 269 270 271 271 271 270 270 271 270 269 267 267 268 269 271 271 271 271 270 271 273 273 272 272 272 273 274 275 276 278 279 280 281 280 280 280 280 280 281 283 285 287 289 290 290 291 291 290 293 296 295 294 297 302 308 313 316 319 322 324 327 329
257 258 259 260 260 261 262 262 262 261 261 263 264 265 265 266 266 267 268 269 270 270 271 271 272 272 272 271 270 269 270 269 267 266 266 265 267 268 269 269 268 268 269 271 272 273 273 273 272 273 274 275 277 278 278 277 276 276 276 276 277 279 281 283 283 284 284 285 286 287 286 289 293 294 293 294 297 303 308 310 312 314 315 317 321
258 260 261 261 261 262 263 265 266 265 263 263 264 265 266 267 268 268 269 271 271 272 273 273 273 273 273 272 271 270 269 267 266 265 264 263 264 265 265 266 268 267 268 269 270 272 274 274 274 273 273 274 275 275 276 275 274 273 274 274 275 278 280 281 280 279 278 279 282 284 283 286 290 293 294 294 294 297 302 305 307 308 308 309 311